Location: Newark
(23.0150°N, 109.5536°W)
Time: 05:23:01
(UTC+00:00)

ISS - Visible Passes

Search period start: 06 December 2019 00:00
Search period end: 16 December 2019 00:00
Orbit: 411 x 421 km, 51.6° (Epoch: 06 December)

Date Brightness Start Highest point End Pass type
(mag) Time Alt. Az. Time Alt. Az. Time Alt. Az.
10 Dec -1.0 02:03:01 10° NNW 02:03:05 10° NNW 02:03:05 10° NNW visible
11 Dec -2.0 01:15:20 10° N 01:17:20 15° NE 01:17:55 14° NE visible
12 Dec -3.4 02:02:17 10° NW 02:05:35 64° SW 02:06:27 43° S visible
13 Dec -3.7 01:13:48 10° NNW 01:17:04 53° NE 01:20:21 10° SE visible
14 Dec -0.5 02:03:02 10° W 02:05:01 15° SW 02:06:58 10° SSW visible
15 Dec -1.6 01:13:33 10° WNW 01:16:33 31° SW 01:19:33 10° S visible
